Location: Lane
(33.5226°N, 79.8788°W)
Time: 04:48:18
(UTC+00:00)

Tiros 1 - Pass Details

Date: 07 October 2022
Orbit: 629 x 662 km, 48.4° (Epoch: 09 December)

Event Time Altitude Azimuth Distance (km) Brightness Sun altitude
Exits shadow 08:15:43 15° 79° (E) 1,726 9.9 -38.2°
Drops below altitude 10° 08:16:45 10° 87° (E) 2,045 10.4 -38.0°
Sets 08:19:20 0° 99° (E) 2,946 11.3 -37.5°
